Temperature
25 22 22 23 23 23 22 20 20 20 20 19 17 16 17 18 17 17 16 16 16 16 15 15 15 14 14 14 14 13 13 13 14 14 14 14 14 15 15 15 15 15 16 16
21 22 24 24 23 22 21 19 19 20 20 18 16 17 17 17 17 17 16 16 16 15 15 15 14 14 14 13 13 13 13 13 13 13 13 13 14 14 14 14 14 15 15 15
22 23 25 24 22 22 21 20 20 19 20 18 17 16 16 17 17 16 16 16 16 15 15 14 14 14 13 13 13 13 13 13 13 13 13 13 13 14 14 14 14 14 14 15
23 24 24 22 22 22 21 22 21 20 18 17 17 15 16 16 16 16 15 16 15 15 15 14 14 14 13 13 13 13 12 12 12 12 12 13 13 13 13 13 14 14 14 15
22 22 22 22 22 22 21 22 21 20 19 17 17 15 15 15 15 15 15 15 15 15 15 14 14 13 13 13 13 13 12 12 12 12 12 12 12 13 13 13 13 14 14 14
22 23 22 22 22 22 22 20 19 16 16 17 17 16 15 14 15 15 15 15 15 15 14 14 14 13 13 13 13 13 12 12 12 12 12 12 12 12 13 13 13 13 14 14
21 21 22 22 21 21 19 17 16 17 15 16 17 16 15 15 16 16 15 15 15 15 14 14 14 13 13 13 13 13 12 12 12 12 12 12 12 12 12 13 13 13 13 14
20 19 21 21 21 20 20 17 16 17 16 16 17 16 15 16 17 16 16 16 15 15 15 14 14 13 13 13 13 13 12 12 12 12 12 12 12 12 12 12 12 13 13 13
18 19 21 21 21 21 20 18 17 16 17 16 16 16 16 16 16 16 16 16 15 15 15 14 14 14 13 13 13 13 12 12 12 12 12 12 12 12 12 12 12 12 13 13
18 19 20 21 21 21 20 18 15 16 17 16 16 16 14 15 15 15 15 16 15 15 15 15 14 14 13 13 13 12 12 12 12 12 12 12 12 12 12 12 12 12 12 12
19 18 19 20 20 19 20 19 16 14 14 15 15 15 15 15 15 14 15 16 16 15 15 15 14 14 13 13 13 12 12 12 12 12 12 12 12 12 12 12 12 12 12 12
18 16 17 19 19 20 20 19 16 16 16 14 14 14 16 15 16 16 16 16 16 16 15 15 14 14 14 13 13 12 12 12 12 11 11 11 11 11 12 12 12 12 12 12
18 16 16 18 18 19 20 20 17 14 14 14 14 15 15 15 16 16 16 16 16 16 15 15 15 14 14 13 13 13 12 12 12 11 11 11 11 11 11 11 11 12 12 12
18 16 17 18 18 18 19 19 19 16 14 15 15 16 16 15 14 16 16 16 16 16 15 15 15 14 14 13 13 13 12 12 12 12 11 11 11 11 11 11 11 11 11 12
17 18 19 18 20 19 19 19 19 17 16 15 16 16 16 15 15 17 17 17 16 16 16 15 15 14 14 14 13 13 12 12 12 12 11 11 11 11 11 11 11 11 11 11
17 19 19 20 20 20 20 19 18 18 18 17 17 17 16 17 17 17 17 17 16 16 16 15 15 15 14 14 13 13 13 12 12 12 11 11 11 11 11 11 11 11 11 11
17 17 18 17 19 20 19 19 18 18 18 17 17 16 16 15 16 17 17 17 17 16 16 16 15 15 14 14 14 13 13 12 12 12 11 11 11 11 11 11 11 11 11 11
17 16 15 16 19 19 19 19 19 19 19 18 18 17 17 18 19 19 18 18 17 16 16 16 15 15 14 14 14 13 13 12 12 12 11 11 11 11 11 11 11 11 11 11
16 17 16 15 18 18 19 20 20 19 19 18 18 17 18 19 18 18 18 18 17 17 16 16 15 15 15 14 14 13 13 12 12 12 11 11 11 11 11 11 11 11 11 11
16 14 15 16 18 19 19 21 21 20 19 19 19 18 18 17 14 16 19 18 18 17 17 16 16 15 15 14 14 13 13 12 12 12 11 11 11 11 11 11 11 11 11 11
17 16 15 16 17 17 18 21 21 19 19 21 21 20 19 18 18 20 19 18 18 17 17 16 16 15 15 15 14 14 13 13 12 12 11 11 11 11 11 11 11 11 11 11
16 15 15 14 16 17 20 20 18 19 22 22 22 21 21 21 20 20 19 19 18 17 17 17 16 16 15 15 14 14 13 13 12 12 12 11 11 11 11 11 11 11 11 11
15 16 15 15 17 20 22 22 24 23 23 23 22 22 21 21 20 20 19 19 18 18 17 17 16 16 16 15 15 14 14 13 13 12 12 12 11 11 11 11 11 11 11 11
17 17 16 17 18 21 23 23 23 23 23 23 22 22 22 21 20 20 19 19 18 18 18 17 17 16 16 16 15 15 14 14 13 13 12 12 12 12 11 11 11 11 11 11
19 18 18 19 18 21 23 23 24 23 23 23 22 22 22 21 20 20 19 19 19 18 18 18 17 17 16 16 16 15 14 14 13 13 13 12 12 12 12 11 11 11 11 11
16 16 17 17 20 19 22 23 23 23 23 22 22 22 21 21 21 20 20 19 19 18 18 18 17 17 17 16 16 15 15 14 14 13 13 13 12 12 12 11 11 11 11 11
Wind_Speed
3 6 3 3 4 4 4 6 6 3 5 5 7 6 5 4 5 5 4 4 4 3 3 4 5 6 6 7 8 8 9 9 7 6 5 5 5 5 5 4 6 6 6 6
7 2 2 2 5 8 8 9 4 2 4 5 6 4 3 3 4 5 4 3 3 4 5 6 6 6 6 6 7 8 9 9 8 6 5 4 4 4 4 4 5 5 5 5
7 3 2 7 8 8 6 5 5 5 2 4 6 1 1 1 3 4 3 3 2 3 3 4 5 6 6 6 7 7 8 9 9 8 6 5 4 4 4 4 4 4 5 4
4 1 6 7 5 5 2 2 5 5 4 3 5 3 4 3 1 1 1 1 1 1 2 3 5 6 6 6 6 6 7 8 8 8 6 6 5 5 5 5 4 5 4 3
3 3 5 5 1 2 3 1 2 3 3 0 1 4 4 2 2 2 2 2 1 1 2 3 5 5 6 6 6 6 7 7 8 8 7 6 5 5 5 5 5 5 5 4
4 3 4 2 0 1 2 6 7 6 5 1 4 5 5 4 5 3 2 2 2 2 2 4 5 5 5 6 6 6 7 7 8 8 8 6 7 7 7 6 5 5 4 4
4 5 3 3 4 5 7 6 5 5 4 4 0 3 5 5 5 5 5 4 3 2 2 4 5 6 6 7 7 6 7 8 9 9 8 8 7 6 6 6 5 5 4 4
4 2 3 2 2 1 1 7 6 3 4 4 3 1 5 4 4 4 5 4 3 2 2 3 4 4 5 6 6 6 7 7 8 9 8 8 7 5 4 5 5 4 4 4
7 4 2 1 1 2 2 2 6 6 1 1 2 2 3 1 2 3 3 3 2 2 3 3 4 4 4 5 6 5 6 6 8 8 8 8 8 7 7 7 6 4 4 4
8 5 4 2 3 3 2 4 5 3 1 2 3 4 5 7 6 4 4 4 4 3 3 4 4 4 4 4 4 5 5 5 6 7 7 7 8 8 7 7 7 7 6 6
5 6 1 1 1 2 2 3 4 4 5 4 3 6 6 9 8 7 6 6 5 4 4 4 4 4 4 4 4 4 5 5 6 7 7 8 8 8 8 8 8 7 6 7
4 6 3 2 4 2 3 4 5 3 1 3 3 7 4 8 8 8 7 6 5 4 4 3 3 3 3 3 3 4 4 4 5 6 6 7 7 8 8 8 8 8 8 7
4 6 4 3 6 3 0 2 5 6 4 3 3 6 2 4 6 7 7 6 4 4 3 2 2 3 3 3 3 3 3 3 4 5 6 7 8 8 8 8 8 8 8 8
4 4 6 7 7 6 4 4 4 5 3 3 6 6 5 7 8 8 7 7 5 5 4 3 2 3 3 3 2 2 2 2 3 4 6 6 7 7 7 7 7 8 8 8
5 3 3 5 6 6 6 7 7 6 7 7 7 7 9 11 11 10 8 7 6 5 4 4 3 3 3 2 2 0 1 1 2 4 5 6 6 6 7 7 7 8 8 9
4 3 1 2 5 5 4 7 8 7 6 7 6 7 7 8 8 8 8 8 7 6 5 4 3 2 3 2 1 1 1 0 2 3 4 5 6 7 7 7 7 7 8 8
3 4 2 3 3 0 6 9 10 7 7 8 9 9 5 7 10 11 11 10 9 8 6 5 4 3 3 3 3 3 2 1 2 3 3 4 5 6 7 7 7 8 7 8
5 4 3 1 2 4 8 5 8 8 7 8 7 7 11 11 11 10 10 10 9 9 7 6 4 3 3 3 3 4 3 2 2 2 2 4 4 5 6 6 7 6 5 6
4 6 4 3 1 6 7 3 5 5 6 7 9 9 10 6 5 3 8 10 10 10 8 6 5 4 3 4 5 5 3 2 2 1 1 2 3 4 5 6 6 4 4 5
6 6 5 3 0 4 7 4 3 4 5 6 8 10 9 9 6 7 8 9 10 9 7 6 5 4 4 5 6 6 4 3 2 2 1 1 1 2 3 4 4 4 3 4
2 3 4 3 3 7 7 1 5 2 7 5 8 10 12 12 10 7 9 10 10 9 8 7 6 5 5 6 7 6 5 4 4 3 2 0 1 1 2 3 3 3 4 5
8 6 5 5 3 7 5 6 6 10 5 4 7 9 11 10 7 7 11 11 11 10 9 8 6 6 5 7 7 7 6 6 5 3 2 1 1 1 1 3 3 3 4 5
8 9 7 8 8 8 7 10 8 6 6 6 7 8 10 8 8 9 10 11 11 11 10 8 7 7 6 7 8 8 7 6 5 4 3 2 1 0 1 2 2 3 3 3
4 4 5 4 7 7 7 8 6 7 7 7 7 8 10 10 10 11 10 10 10 10 9 8 8 7 7 7 8 8 8 7 6 5 4 3 3 1 0 1 1 2 2 2
3 2 1 4 7 7 6 7 8 7 6 5 5 8 11 12 11 12 11 11 11 10 9 8 9 9 9 8 8 8 8 7 6 5 5 4 4 4 2 1 1 1 2 2
2 1 2 6 7 5 6 6 4 5 6 6 6 6 7 11 12 12 12 12 11 11 10 9 10 10 9 8 9 9 8 8 7 5 5 5 4 4 3 2 1 2 3 3
Wind_Direction
45 72 100 172 170 165 146 132 137 159 148 121 143 162 176 150 115 105 92 74 53 25 357 4 6 10 5 359 354 349 346 341 340 334 328 322 319 313 309 297 296 291 284 271
50 68 232 116 87 79 97 106 115 142 154 128 147 167 184 166 139 137 125 101 57 17 7 1 359 0 357 349 345 347 345 340 338 329 313 290 291 290 289 295 311 307 298 282
142 206 102 85 70 82 84 131 167 176 125 104 121 80 211 151 111 110 109 113 70 40 11 348 346 346 344 342 339 343 337 336 334 333 329 328 324 315 324 322 322 313 312 302
109 27 88 83 72 94 134 170 155 150 136 205 163 199 234 192 132 112 125 104 70 21 350 335 335 338 337 331 330 333 334 336 335 338 339 341 339 323 306 305 308 316 322 313
88 62 78 82 102 121 194 214 140 154 147 7 165 150 254 183 211 239 206 181 204 252 324 330 327 325 327 328 332 334 334 337 336 337 336 334 329 314 310 315 321 325 325 317
72 55 81 120 313 58 72 35 31 51 74 317 237 163 238 226 210 206 204 201 223 263 310 323 325 327 328 330 335 339 340 339 339 341 342 341 334 331 334 338 335 329 321 321
45 15 16 53 28 13 65 68 27 4 10 261 269 130 237 228 196 180 184 203 226 248 292 317 325 329 330 334 339 341 344 342 342 346 348 346 340 339 339 332 330 332 326 322
126 291 315 48 134 194 156 135 147 201 236 280 2 203 250 220 181 163 172 193 207 242 274 300 309 316 321 328 337 343 345 340 343 348 346 347 350 348 342 337 340 336 327 322
150 213 291 353 54 131 86 128 171 146 193 329 299 297 302 203 177 176 185 185 209 237 256 284 301 312 318 325 330 336 342 342 345 348 347 351 356 358 354 352 355 350 340 345
132 156 252 269 14 350 149 142 79 96 126 305 287 244 229 210 209 199 194 202 220 237 257 280 292 300 306 316 326 338 344 344 344 353 356 3 358 358 358 3 2 358 356 357
112 127 165 42 214 235 29 62 93 116 149 158 264 268 221 195 193 191 202 209 214 225 243 269 282 293 302 321 331 343 349 353 356 358 357 3 2 1 6 9 5 2 2 5
100 112 112 282 298 216 152 147 135 139 233 168 195 266 252 182 184 184 199 211 211 214 231 248 267 302 316 321 325 337 348 357 358 1 6 6 3 4 10 8 3 4 8 9
94 106 91 345 334 339 163 175 144 133 121 156 192 266 261 180 185 195 199 208 211 213 223 245 276 293 296 299 314 332 347 359 4 11 15 11 6 6 6 4 3 7 11 11
105 106 157 187 211 196 200 208 167 126 150 224 227 237 217 204 202 209 209 207 204 207 210 214 253 276 278 287 301 324 352 358 12 20 21 15 5 2 2 4 5 7 10 14
102 111 197 215 207 174 192 198 190 181 189 198 231 220 224 208 203 204 203 200 192 194 201 207 224 253 263 285 306 331 16 11 23 28 22 10 2 3 6 10 10 11 13 16
96 126 108 264 234 203 224 218 204 211 206 211 222 247 232 197 187 192 193 189 190 194 199 202 196 217 238 244 229 161 128 41 42 38 18 9 10 10 9 7 10 14 14 12
108 128 111 285 292 22 273 233 203 211 208 189 212 228 184 179 195 198 196 194 193 193 195 192 193 214 227 219 187 168 168 120 72 46 20 13 13 13 7 10 15 14 13 17
128 116 121 110 59 248 254 252 189 201 226 206 204 198 184 195 200 199 190 187 190 189 189 191 196 212 217 186 162 153 140 116 93 51 16 12 16 12 8 14 14 10 12 18
126 126 104 104 248 283 292 254 166 182 258 218 200 199 197 177 142 227 205 183 183 187 189 193 194 197 186 164 156 140 129 122 113 71 356 355 13 16 13 12 6 6 18 24
71 90 106 106 189 258 261 264 138 99 284 245 191 188 179 144 170 235 208 180 181 184 184 184 183 179 165 165 153 139 148 149 172 212 240 293 358 18 12 7 7 9 24 28
74 70 122 163 234 267 258 184 93 124 251 244 188 183 173 182 203 206 176 178 180 182 187 179 173 178 182 168 153 151 170 193 209 204 194 234 325 351 14 20 19 22 33 39
169 162 184 158 201 265 225 148 182 219 238 221 195 188 188 203 204 179 175 181 180 180 184 178 175 191 189 171 161 169 196 213 207 190 183 207 289 326 49 47 31 33 46 50
191 187 183 185 213 240 207 204 219 193 208 219 199 202 188 187 184 180 183 184 184 184 187 183 182 192 197 188 175 182 207 206 196 188 195 206 209 350 50 71 59 48 48 56
262 178 155 227 263 256 241 244 251 216 219 224 203 191 177 183 184 183 186 187 188 190 190 188 183 194 206 205 200 199 199 193 186 194 204 202 193 210 341 84 92 91 75 65
273 150 167 266 287 306 290 255 250 246 238 226 204 189 186 182 187 187 189 193 195 195 195 188 190 200 210 207 208 209 197 184 184 195 204 200 195 192 193 194 211 189 213 201
323 189 198 245 261 234 261 276 248 230 237 224 206 201 199 190 192 192 196 198 197 198 195 196 200 205 209 204 208 209 198 185 183 194 203 201 197 197 193 194 255 296 257 261
Height
1534 1541 1547 1545 1543 1544 1547 1555 1561 1561 1558 1563 1568 1570 1569 1568 1567 1567 1567 1566 1565 1563 1561 1559 1555 1552 1549 1545 1541 1537 1533 1530 1526 1523 1520 1517 1515 1514 1513 1512 1511 1511 1511 1511
1542 1546 1541 1539 1540 1543 1549 1559 1562 1560 1558 1563 1570 1571 1569 1568 1567 1567 1567 1566 1565 1563 1560 1558 1555 1551 1547 1544 1540 1536 1532 1528 1525 1521 1518 1516 1513 1511 1509 1508 1508 1507 1507 1507
1544 1543 1538 1540 1545 1549 1554 1558 1560 1561 1560 1563 1570 1575 1572 1569 1568 1568 1567 1566 1564 1562 1560 1557 1554 1550 1547 1543 1539 1535 1532 1528 1524 1520 1517 1514 1511 1508 1507 1505 1504 1504 1504 1503
1542 1539 1540 1544 1548 1549 1556 1551 1552 1557 1566 1573 1570 1585 1575 1570 1569 1568 1567 1565 1564 1562 1559 1556 1553 1550 1546 1542 1539 1535 1531 1527 1523 1519 1516 1512 1509 1506 1505 1503 1502 1501 1500 1500
1544 1542 1544 1548 1548 1547 1551 1548 1551 1555 1563 1571 1570 1581 1579 1571 1571 1568 1566 1565 1563 1561 1559 1556 1553 1549 1546 1542 1538 1535 1531 1527 1523 1519 1515 1512 1509 1506 1504 1502 1500 1498 1498 1498
1543 1543 1544 1546 1546 1546 1547 1552 1556 1563 1571 1580 1571 1578 1580 1574 1568 1566 1565 1564 1562 1561 1558 1556 1553 1549 1546 1542 1538 1534 1530 1527 1522 1519 1515 1511 1508 1505 1502 1500 1498 1497 1496 1495
1551 1548 1546 1546 1549 1549 1553 1568 1582 1582 1589 1584 1569 1574 1576 1566 1564 1564 1564 1563 1562 1560 1558 1555 1552 1549 1545 1542 1538 1534 1530 1527 1523 1519 1515 1511 1508 1505 1502 1499 1497 1496 1494 1493
1561 1563 1550 1548 1551 1555 1555 1566 1583 1590 1591 1584 1571 1575 1572 1563 1562 1563 1562 1562 1561 1559 1557 1555 1552 1549 1545 1542 1538 1534 1531 1527 1523 1519 1515 1512 1508 1505 1502 1500 1497 1496 1494 1492
1561 1563 1550 1548 1549 1551 1555 1562 1564 1578 1578 1584 1580 1574 1568 1563 1563 1563 1562 1561 1560 1559 1557 1554 1552 1549 1546 1542 1539 1535 1531 1528 1524 1520 1516 1513 1509 1506 1503 1501 1498 1496 1493 1491
1549 1560 1553 1550 1550 1550 1552 1556 1569 1575 1583 1590 1580 1577 1577 1566 1564 1562 1561 1560 1559 1558 1556 1554 1552 1549 1546 1543 1539 1536 1532 1529 1525 1521 1518 1514 1511 1507 1504 1501 1499 1496 1493 1491
1543 1558 1558 1555 1556 1557 1556 1558 1567 1577 1580 1589 1591 1581 1560 1559 1559 1559 1559 1558 1558 1557 1555 1553 1551 1549 1546 1543 1540 1537 1533 1530 1526 1523 1519 1515 1512 1508 1505 1502 1500 1497 1494 1492
1543 1558 1566 1559 1553 1550 1552 1556 1565 1576 1577 1581 1587 1580 1554 1554 1555 1556 1557 1557 1556 1556 1554 1553 1551 1549 1546 1544 1541 1537 1534 1531 1527 1524 1520 1517 1513 1510 1507 1504 1501 1498 1495 1492
1543 1557 1572 1569 1566 1556 1554 1553 1557 1568 1576 1580 1584 1574 1554 1554 1555 1555 1555 1555 1555 1555 1554 1552 1551 1549 1546 1544 1541 1538 1535 1532 1528 1525 1521 1518 1514 1511 1508 1505 1502 1499 1496 1494
1542 1554 1563 1567 1564 1556 1555 1553 1553 1563 1575 1575 1570 1564 1556 1554 1554 1553 1554 1554 1554 1553 1553 1551 1550 1548 1546 1544 1542 1539 1536 1533 1530 1526 1523 1519 1516 1513 1510 1507 1504 1501 1498 1495
1543 1552 1550 1551 1546 1548 1549 1551 1552 1556 1561 1566 1560 1556 1551 1549 1549 1550 1551 1552 1552 1552 1551 1550 1549 1548 1546 1544 1542 1539 1536 1534 1531 1527 1524 1521 1518 1515 1512 1509 1506 1503 1500 1497
1543 1549 1549 1550 1545 1546 1548 1547 1549 1550 1550 1552 1551 1550 1542 1543 1546 1547 1549 1549 1550 1550 1550 1549 1548 1547 1545 1544 1542 1539 1537 1534 1532 1529 1526 1523 1520 1517 1514 1511 1508 1505 1502 1499
1546 1550 1556 1560 1550 1549 1555 1544 1545 1544 1541 1544 1549 1544 1540 1542 1543 1544 1545 1546 1547 1548 1548 1547 1547 1546 1545 1543 1542 1540 1537 1535 1532 1530 1527 1524 1522 1519 1516 1513 1511 1508 1505 1502
1545 1551 1559 1561 1557 1562 1547 1532 1533 1536 1535 1535 1534 1535 1536 1537 1538 1540 1542 1543 1544 1545 1546 1546 1545 1545 1544 1543 1541 1540 1538 1535 1533 1530 1528 1526 1523 1521 1518 1516 1513 1511 1508 1506
1540 1548 1558 1565 1563 1556 1540 1531 1531 1535 1535 1529 1531 1531 1533 1535 1538 1539 1539 1540 1542 1543 1544 1544 1544 1544 1543 1542 1541 1539 1538 1536 1533 1531 1529 1527 1525 1523 1520 1518 1516 1514 1511 1509
1542 1546 1558 1563 1560 1559 1542 1528 1527 1533 1536 1526 1526 1528 1530 1534 1541 1537 1536 1538 1539 1541 1542 1542 1543 1543 1542 1541 1540 1539 1537 1536 1534 1532 1530 1528 1526 1524 1522 1520 1518 1516 1514 1512
1549 1552 1558 1561 1562 1553 1532 1528 1530 1544 1538 1523 1522 1524 1526 1528 1529 1530 1532 1535 1537 1538 1540 1541 1541 1541 1541 1540 1539 1538 1537 1536 1534 1533 1531 1529 1527 1526 1524 1522 1520 1518 1517 1515
1548 1554 1557 1562 1562 1553 1526 1527 1531 1529 1521 1520 1520 1521 1522 1523 1526 1527 1529 1532 1534 1536 1537 1538 1539 1539 1539 1539 1538 1537 1536 1535 1534 1533 1532 1530 1528 1527 1525 1524 1522 1520 1519 1517
1539 1537 1540 1543 1540 1524 1521 1520 1519 1519 1519 1519 1519 1519 1520 1522 1523 1525 1527 1529 1531 1533 1534 1536 1537 1537 1538 1537 1537 1536 1536 1535 1534 1533 1532 1531 1529 1528 1526 1525 1523 1522 1520 1519
1529 1527 1530 1530 1524 1519 1518 1518 1518 1518 1517 1517 1517 1517 1518 1519 1520 1522 1524 1526 1528 1530 1532 1533 1534 1535 1535 1535 1535 1535 1534 1534 1533 1532 1531 1530 1529 1528 1527 1526 1524 1523 1521 1520
1526 1524 1526 1526 1520 1517 1515 1515 1515 1515 1515 1515 1515 1515 1516 1516 1518 1519 1521 1523 1525 1527 1529 1530 1531 1532 1532 1533 1533 1533 1533 1532 1532 1531 1530 1530 1529 1528 1527 1526 1525 1524 1522 1521
1527 1528 1529 1527 1519 1518 1515 1514 1513 1513 1513 1513 1513 1513 1513 1514 1515 1516 1517 1519 1521 1523 1525 1526 1528 1528 1529 1530 1530 1530 1530 1530 1530 1529 1529 1528 1528 1527 1527 1526 1525 1524 1523 1522